Tracking 34171 objects as of 21-May-2026
HD Live streaming from Space Station
objects crossing your sky now

STARLINK-37233

Track STARLINK-37233 now!
10-day predictions
STARLINK-37233 is classified as:


NORAD ID: 68562
Int'l Code: 2026-070W
Perigee: 468.6 km
Apogee: 471.1 km
Inclination: 53.2 °
Period: 93.8 minutes
Semi major axis: 6840 km
RCS: Unknown
Launch date: April 2, 2026
Source: United States (US)
Launch site: AIR FORCE EASTERN TEST RANGE (AFETR)
Your satellite tracking list
Your tracking list is empty




NASA's NSSDC Master Catalog

Two Line Element Set (TLE):
1 68562U 26070W   26140.67188478  .00016234  00000-0  49044-3 0  9994
2 68562  53.1585  27.6383 0001812  50.6118 309.5044 15.34407030  7580
Source of the keplerian elements: AFSPC